sat.trackr.live / text

‹ back to catalog

ONEWEB-0334

NORAD 49200 · 2021-083Q

PAYLOAD ACTIVE UNKNOWN

§ Identity

Operator
Country
UK
Launch date
2021-09-14
Launch site
TYMSC
Launch vehicle
Mass (kg)
RCS (m²)

Purposes: comms

External: N2YO · Heavens-Above · Gunter

§ Orbital elements

Epoch: 2026-09-20T05:08:44.674944Z

Period
109.03 min
Inclination
87.9266°
Eccentricity
0.0002093
Mean motion
13.20696331 rev/d
Perigee alt
1,180.5 km
Apogee alt
1,183.6 km
Semi-major
7,560.2 km
B*
1.2208e-2
RAAN
255.4898°
Arg perigee
76.9680°
Mean anomaly
283.1687°
Rev number
24,933

§ Raw data

ONEWEB-03341 49200U 21083Q   26263.21440596  .00004974  00000+0  12208-1 0  99962 49200  87.9266 255.4898 0002093  76.9680 283.1687 13.20696331249336

JSON: /api/v1/satellites/49200 · /tle

For live sub-satellite position, see the globe view (requires WebGL).

§ Visibility from observer

Set your observer location to see the next 7 days of passes ≥ 10°. The values pass through the URL so the page stays shareable.

No JS? Fill the form by hand. The geolocation button needs JavaScript.